| time (UTC) | temp F | wind direction | speed MPH | gust MPH | rain 1hr in | rain 24hr in | rain mn in | humidity % | barometer mb |
| 20260901161048 | 67 | 355 | 2.0 | 3.0 | 0.00 | 0.00 | 0.00 | 78 | 1017.7 |
| 20260901160546 | 66 | 348 | 1.0 | 3.0 | 0.00 | 0.00 | 0.00 | 78 | 1017.6 |
| 20260901160045 | 66 | 342 | 0.0 | 3.0 | 0.00 | 0.00 | 0.00 | 77 | 1017.7 |
| 20260901155547 | 66 | 342 | 1.0 | 3.0 | 0.00 | 0.00 | 0.00 | 77 | 1017.7 |
| 20260901155045 | 66 | 335 | 1.0 | 3.0 | 0.00 | 0.00 | 0.00 | 77 | 1017.6 |
| 20260901154552 | 66 | 330 | 1.0 | 5.0 | 0.00 | 0.00 | 0.00 | 77 | 1017.6 |
| 20260901154044 | 66 | 320 | 3.0 | 5.0 | 0.00 | 0.00 | 0.00 | 77 | 1017.6 |
| 20260901153544 | 66 | 350 | 2.0 | 5.0 | 0.00 | 0.00 | 0.00 | 77 | 1017.6 |
| 20260901153044 | 66 | 17 | 3.0 | 5.0 | 0.00 | 0.00 | 0.00 | 78 | 1017.5 |
| 20260901152543 | 66 | 323 | 1.0 | 5.0 | 0.00 | 0.00 | 0.00 | 78 | 1017.4 |
| 20260901152044 | 66 | 24 | 3.0 | 6.0 | 0.00 | 0.00 | 0.00 | 77 | 1017.2 |
| 20260901151545 | 66 | 17 | 2.0 | 6.0 | 0.00 | 0.00 | 0.00 | 76 | 1017.1 |
| 20260901151044 | 66 | 36 | 2.0 | 6.0 | 0.00 | 0.00 | 0.00 | 76 | 1017.2 |
| 20260901150542 | 66 | 29 | 3.0 | 6.0 | 0.00 | 0.00 | 0.00 | 77 | 1017.1 |
| 20260901150041 | 65 | 31 | 2.0 | 8.0 | 0.00 | 0.00 | 0.00 | 80 | 1017.1 |
| 20260901145540 | 64 | 38 | 4.0 | 8.0 | 0.00 | 0.00 | 0.00 | 80 | 1017.3 |
| 20260901145039 | 63 | 21 | 3.0 | 6.0 | 0.00 | 0.00 | 0.00 | 80 | 1017.4 |
| 20260901144538 | 63 | 345 | 2.0 | 5.0 | 0.00 | 0.00 | 0.00 | 80 | 1017.4 |
| 20260901144036 | 63 | 331 | 1.0 | 6.0 | 0.00 | 0.00 | 0.00 | 81 | 1017.4 |
| 20260901143536 | 62 | 345 | 3.0 | 6.0 | 0.00 | 0.00 | 0.00 | 81 | 1017.5 |
| 20260901143035 | 62 | 347 | 2.0 | 5.0 | 0.00 | 0.00 | 0.00 | 82 | 1017.6 |
| 20260901142534 | 62 | 5 | 2.0 | 6.0 | 0.00 | 0.00 | 0.00 | 82 | 1017.8 |
| 20260901142033 | 62 | 332 | 3.0 | 6.0 | 0.00 | 0.00 | 0.00 | 82 | 1017.8 |
| 20260901141533 | 62 | 331 | 3.0 | 8.0 | 0.00 | 0.00 | 0.00 | 82 | 1017.8 |
| 20260901141036 | 62 | 336 | 4.0 | 8.0 | 0.00 | 0.00 | 0.00 | 82 | 1017.7 |
| 20260901140530 | 61 | 338 | 3.0 | 8.0 | 0.00 | 0.00 | 0.00 | 81 | 1017.5 |
| 20260901140030 | 61 | 24 | 3.0 | 8.0 | 0.00 | 0.00 | 0.00 | 82 | 1017.5 |
| 20260901135529 | 61 | 5 | 1.0 | 5.0 | 0.00 | 0.00 | 0.00 | 83 | 1017.6 |
| 20260901135029 | 61 | 5 | 2.0 | 8.0 | 0.00 | 0.00 | 0.00 | 83 | 1017.6 |
| 20260901134527 | 60 | 355 | 3.0 | 5.0 | 0.00 | 0.00 | 0.00 | 84 | 1017.7 |
| 20260901134025 | 60 | 19 | 2.0 | 5.0 | 0.00 | 0.00 | 0.00 | 84 | 1017.9 |
| 20260901133524 | 60 | 24 | 3.0 | 6.0 | 0.00 | 0.00 | 0.00 | 84 | 1017.8 |
| 20260901133024 | 60 | 355 | 3.0 | 9.0 | 0.00 | 0.00 | 0.00 | 84 | 1017.7 |
| 20260901132524 | 59 | 9 | 3.0 | 9.0 | 0.00 | 0.00 | 0.00 | 84 | 1017.7 |
| 20260901132026 | 59 | 355 | 2.0 | 6.0 | 0.00 | 0.00 | 0.00 | 85 | 1017.7 |
| 20260901131522 | 59 | 5 | 2.0 | 6.0 | 0.00 | 0.00 | 0.00 | 85 | 1017.7 |
| 20260901131022 | 59 | 15 | 3.0 | 6.0 | 0.00 | 0.00 | 0.00 | 85 | 1017.8 |
| 20260901130524 | 59 | 16 | 2.0 | 6.0 | 0.00 | 0.00 | 0.00 | 85 | 1017.7 |
| 20260901130021 | 59 | 344 | 2.0 | 6.0 | 0.00 | 0.00 | 0.00 | 86 | 1017.8 |
| 20260901125522 | 59 | 336 | 3.0 | 9.0 | 0.00 | 0.00 | 0.00 | 86 | 1017.8 |
| 20260901125020 | 59 | 347 | 3.0 | 6.0 | 0.00 | 0.00 | 0.00 | 86 | 1017.8 |
| 20260901124520 | 59 | 24 | 3.0 | 6.0 | 0.00 | 0.00 | 0.00 | 87 | 1017.9 |
| 20260901124019 | 59 | 30 | 3.0 | 8.0 | 0.00 | 0.00 | 0.00 | 87 | 1017.8 |
| 20260901123519 | 59 | 355 | 2.0 | 8.0 | 0.00 | 0.00 | 0.00 | 88 | 1017.8 |
| 20260901123019 | 58 | 355 | 2.0 | 6.0 | 0.00 | 0.00 | 0.00 | 89 | 1017.6 |
| 20260901122518 | 58 | 342 | 3.0 | 6.0 | 0.00 | 0.00 | 0.00 | 89 | 1017.7 |
| 20260901122016 | 58 | 360 | 2.0 | 4.0 | 0.00 | 0.00 | 0.00 | 90 | 1017.7 |
| 20260901121520 | 57 | 345 | 1.0 | 4.0 | 0.00 | 0.00 | 0.00 | 91 | 1017.8 |
| 20260901121016 | 57 | 26 | 2.0 | 5.0 | 0.00 | 0.00 | 0.00 | 91 | 1017.7 |
| 20260901120512 | 57 | 29 | 2.0 | 8.0 | 0.00 | 0.00 | 0.00 | 92 | 1017.5 |
| 20260901120011 | 57 | 344 | 3.0 | 8.0 | 0.00 | 0.00 | 0.00 | 92 | 1017.6 |
| 20260901115510 | 57 | 323 | 2.0 | 6.0 | 0.00 | 0.00 | 0.00 | 92 | 1017.6 |
| 20260901115009 | 57 | 28 | 3.0 | 6.0 | 0.00 | 0.00 | 0.00 | 93 | 1017.6 |
| 20260901114508 | 57 | 355 | 2.0 | 5.0 | 0.00 | 0.00 | 0.00 | 93 | 1017.6 |
| 20260901114007 | 56 | 346 | 2.0 | 6.0 | 0.00 | 0.00 | 0.00 | 93 | 1017.5 |
| 20260901113507 | 56 | 327 | 2.0 | 5.0 | 0.00 | 0.00 | 0.00 | 93 | 1017.5 |
| 20260901113006 | 56 | 319 | 2.0 | 6.0 | 0.00 | 0.00 | 0.00 | 94 | 1017.5 |
| 20260901112504 | 56 | 5 | 3.0 | 8.0 | 0.00 | 0.00 | 0.00 | 94 | 1017.4 |
| 20260901112005 | 56 | 355 | 3.0 | 5.0 | 0.00 | 0.00 | 0.00 | 94 | 1017.4 |
| 20260901111504 | 56 | 324 | 1.0 | 6.0 | 0.00 | 0.00 | 0.00 | 95 | 1017.4 |
| 20260901111004 | 56 | 336 | 2.0 | 6.0 | 0.00 | 0.00 | 0.00 | 95 | 1017.4 |
| 20260901110503 | 56 | 17 | 1.0 | 5.0 | 0.00 | 0.00 | 0.00 | 95 | 1017.4 |
| 20260901110007 | 56 | 334 | 1.0 | 5.0 | 0.00 | 0.00 | 0.00 | 95 | 1017.3 |
| 20260901105503 | 56 | 332 | 1.0 | 5.0 | 0.00 | 0.00 | 0.00 | 95 | 1017.3 |
| 20260901105004 | 56 | 319 | 1.0 | 4.0 | 0.00 | 0.00 | 0.00 | 95 | 1017.2 |
| 20260901104501 | 55 | 344 | 2.0 | 4.0 | 0.00 | 0.00 | 0.00 | 95 | 1017.2 |
| 20260901104001 | 55 | 300 | 1.0 | 4.0 | 0.00 | 0.00 | 0.00 | 95 | 1017.2 |
| 20260901103500 | 55 | 310 | 1.0 | 4.0 | 0.00 | 0.00 | 0.00 | 95 | 1017.1 |
| 20260901103100 | 55 | 321 | 1.0 | 3.0 | 0.00 | 0.00 | 0.00 | 95 | 1017.1 |
| 20260901102559 | 55 | 319 | 0.0 | 3.0 | 0.00 | 0.00 | 0.00 | 95 | 1017.0 |
| 20260901102057 | 55 | 318 | 1.0 | 3.0 | 0.00 | 0.00 | 0.00 | 95 | 1016.9 |
| 20260901101559 | 55 | 318 | 1.0 | 3.0 | 0.00 | 0.00 | 0.00 | 95 | 1016.9 |
| 20260901101057 | 55 | 314 | 1.0 | 4.0 | 0.00 | 0.00 | 0.00 | 95 | 1017.0 |
| 20260901100600 | 55 | 323 | 2.0 | 4.0 | 0.00 | 0.00 | 0.00 | 95 | 1017.0 |
| 20260901100059 | 55 | 301 | 1.0 | 3.0 | 0.00 | 0.00 | 0.00 | 95 | 1017.0 |
| 20260901095555 | 55 | 298 | 0.0 | 4.0 | 0.00 | 0.00 | 0.00 | 95 | 1016.9 |
| 20260901095055 | 55 | 298 | 1.0 | 4.0 | 0.00 | 0.00 | 0.00 | 95 | 1016.8 |
| 20260901094555 | 55 | 306 | 2.0 | 4.0 | 0.00 | 0.00 | 0.00 | 95 | 1016.9 |
| 20260901094055 | 55 | 319 | 2.0 | 4.0 | 0.00 | 0.00 | 0.00 | 95 | 1016.8 |
| 20260901093554 | 56 | 310 | 1.0 | 4.0 | 0.00 | 0.00 | 0.00 | 95 | 1016.9 |
| 20260901093058 | 56 | 319 | 2.0 | 4.0 | 0.00 | 0.00 | 0.00 | 95 | 1016.9 |
| 20260901092557 | 56 | 306 | 1.0 | 2.0 | 0.00 | 0.00 | 0.00 | 95 | 1016.9 |
| 20260901092053 | 56 | 304 | 0.0 | 0.0 | 0.00 | 0.00 | 0.00 | 95 | 1016.9 |
| 20260901091603 | 56 | 304 | 0.0 | 2.0 | 0.00 | 0.00 | 0.00 | 95 | 1016.9 |
| 20260901091053 | 56 | 304 | 0.0 | 2.0 | 0.00 | 0.00 | 0.00 | 95 | 1017.0 |
| 20260901090555 | 56 | 306 | 0.0 | 3.0 | 0.00 | 0.00 | 0.00 | 95 | 1017.0 |
| 20260901090058 | 56 | 306 | 1.0 | 3.0 | 0.00 | 0.00 | 0.00 | 95 | 1017.1 |
| 20260901085551 | 56 | 302 | 1.0 | 3.0 | 0.00 | 0.00 | 0.00 | 95 | 1017.0 |
| 20260901085050 | 56 | 312 | 0.0 | 2.0 | 0.00 | 0.00 | 0.00 | 95 | 1016.9 |
| 20260901084552 | 56 | 313 | 0.0 | 3.0 | 0.00 | 0.00 | 0.00 | 95 | 1017.0 |
| 20260901084050 | 56 | 313 | 1.0 | 5.0 | 0.00 | 0.00 | 0.00 | 95 | 1016.8 |
| 20260901083550 | 56 | 307 | 3.0 | 5.0 | 0.00 | 0.00 | 0.00 | 95 | 1016.8 |
| 20260901083050 | 56 | 313 | 2.0 | 4.0 | 0.00 | 0.00 | 0.00 | 95 | 1016.9 |
| 20260901082550 | 56 | 315 | 1.0 | 3.0 | 0.00 | 0.00 | 0.00 | 94 | 1017.0 |
| 20260901082048 | 56 | 315 | 0.0 | 2.0 | 0.00 | 0.00 | 0.00 | 94 | 1016.9 |
| 20260901081549 | 56 | 315 | 0.0 | 2.0 | 0.00 | 0.00 | 0.00 | 94 | 1016.8 |
| 20260901081047 | 56 | 316 | 0.0 | 2.0 | 0.00 | 0.00 | 0.00 | 94 | 1016.8 |
| 20260901080546 | 56 | 316 | 0.0 | 1.0 | 0.00 | 0.00 | 0.00 | 94 | 1016.8 |
| 20260901080104 | 56 | 316 | 0.0 | 1.0 | 0.00 | 0.00 | 0.00 | 94 | 1016.9 |
| 20260901075545 | 56 | 316 | 0.0 | 1.0 | 0.00 | 0.00 | 0.00 | 94 | 1016.9 |
| 20260901075044 | 57 | 316 | 0.0 | 2.0 | 0.00 | 0.00 | 0.00 | 94 | 1017.0 |
| 20260901074543 | 57 | 316 | 0.0 | 3.0 | 0.00 | 0.00 | 0.00 | 94 | 1017.0 |
| 20260901074042 | 57 | 315 | 1.0 | 3.0 | 0.00 | 0.00 | 0.00 | 94 | 1017.1 |
| 20260901073542 | 57 | 309 | 1.0 | 3.0 | 0.00 | 0.00 | 0.00 | 94 | 1017.1 |
| 20260901073042 | 57 | 301 | 1.0 | 3.0 | 0.00 | 0.00 | 0.00 | 94 | 1017.1 |
| 20260901072545 | 57 | 296 | 1.0 | 3.0 | 0.00 | 0.00 | 0.00 | 94 | 1017.2 |
| 20260901072045 | 57 | 294 | 1.0 | 3.0 | 0.00 | 0.00 | 0.00 | 94 | 1017.1 |
| 20260901071541 | 57 | 313 | 1.0 | 3.0 | 0.00 | 0.00 | 0.00 | 94 | 1017.1 |
| 20260901071042 | 57 | 313 | 1.0 | 4.0 | 0.00 | 0.00 | 0.00 | 94 | 1017.2 |
| 20260901070540 | 57 | 322 | 2.0 | 4.0 | 0.00 | 0.00 | 0.00 | 94 | 1017.3 |
| 20260901070050 | 57 | 335 | 1.0 | 4.0 | 0.00 | 0.00 | 0.00 | 94 | 1017.1 |
| 20260901065539 | 58 | 334 | 2.0 | 4.0 | 0.00 | 0.00 | 0.00 | 94 | 1017.0 |
| 20260901065039 | 58 | 345 | 1.0 | 3.0 | 0.00 | 0.00 | 0.00 | 94 | 1017.0 |
| 20260901064542 | 58 | 350 | 1.0 | 3.0 | 0.00 | 0.00 | 0.00 | 94 | 1017.1 |
| 20260901064039 | 58 | 351 | 1.0 | 3.0 | 0.00 | 0.00 | 0.00 | 94 | 1017.0 |
| 20260901063538 | 58 | 355 | 0.0 | 3.0 | 0.00 | 0.00 | 0.00 | 94 | 1017.2 |
| 20260901063037 | 58 | 350 | 1.0 | 3.0 | 0.00 | 0.00 | 0.00 | 94 | 1017.2 |
| 20260901062537 | 58 | 336 | 1.0 | 3.0 | 0.00 | 0.00 | 0.00 | 94 | 1017.2 |
| 20260901062037 | 58 | 336 | 1.0 | 3.0 | 0.00 | 0.00 | 0.00 | 94 | 1017.4 |
| 20260901061537 | 59 | 336 | 1.0 | 2.0 | 0.00 | 0.00 | 0.00 | 94 | 1017.3 |
| 20260901061037 | 59 | 336 | 0.0 | 2.0 | 0.00 | 0.00 | 0.00 | 94 | 1017.4 |
| 20260901060536 | 59 | 336 | 0.0 | 2.0 | 0.00 | 0.00 | 0.00 | 94 | 1017.3 |
| 20260901060041 | 59 | 336 | 0.0 | 5.0 | 0.00 | 0.00 | 0.00 | 94 | 1017.3 |
| 20260901055535 | 59 | 336 | 1.0 | 5.0 | 0.00 | 0.00 | 0.00 | 94 | 1017.4 |
| 20260901055034 | 58 | 319 | 2.0 | 5.0 | 0.00 | 0.00 | 0.00 | 94 | 1017.4 |
| 20260901054534 | 58 | 169 | 0.0 | 2.0 | 0.00 | 0.00 | 0.00 | 94 | 1017.5 |
| 20260901054034 | 58 | 160 | 0.0 | 2.0 | 0.00 | 0.00 | 0.00 | 94 | 1017.4 |
| 20260901053533 | 58 | 159 | 0.0 | 0.0 | 0.00 | 0.00 | 0.00 | 94 | 1017.3 |
| 20260901053032 | 58 | 159 | 0.0 | 0.0 | 0.00 | 0.00 | 0.00 | 93 | 1017.2 |
| 20260901052531 | 58 | 159 | 0.0 | 0.0 | 0.00 | 0.00 | 0.00 | 93 | 1017.2 |
| 20260901052031 | 58 | 159 | 0.0 | 0.0 | 0.00 | 0.00 | 0.00 | 93 | 1017.1 |
| 20260901051531 | 58 | 159 | 0.0 | 0.0 | 0.00 | 0.00 | 0.00 | 93 | 1017.1 |
| 20260901051031 | 58 | 159 | 0.0 | 0.0 | 0.00 | 0.00 | 0.00 | 93 | 1017.2 |
| 20260901050530 | 58 | 159 | 0.0 | 0.0 | 0.00 | 0.00 | 0.00 | 93 | 1017.2 |
| 20260901050030 | 58 | 159 | 0.0 | 0.0 | 0.00 | 0.00 | 0.00 | 93 | 1017.2 |
| 20260901045529 | 58 | 159 | 0.0 | 0.0 | 0.00 | 0.00 | 0.00 | 93 | 1017.3 |
| 20260901045029 | 58 | 159 | 0.0 | 1.0 | 0.00 | 0.00 | 0.00 | 93 | 1017.3 |
| 20260901044529 | 58 | 159 | 0.0 | 1.0 | 0.00 | 0.00 | 0.00 | 92 | 1017.2 |
| 20260901044031 | 58 | 159 | 0.0 | 2.0 | 0.00 | 0.00 | 0.00 | 93 | 1017.3 |
| 20260901043528 | 58 | 159 | 1.0 | 2.0 | 0.00 | 0.00 | 0.00 | 92 | 1017.3 |
| 20260901043028 | 58 | 159 | 0.0 | 2.0 | 0.00 | 0.00 | 0.00 | 92 | 1017.3 |
| 20260901042528 | 58 | 159 | 0.0 | 0.0 | 0.00 | 0.00 | 0.00 | 92 | 1017.3 |
| 20260901042027 | 58 | 159 | 0.0 | 1.0 | 0.00 | 0.00 | 0.00 | 92 | 1017.4 |
| 20260901041526 | 58 | 159 | 0.0 | 2.0 | 0.00 | 0.00 | 0.00 | 92 | 1017.4 |
| 20260901041026 | 58 | 159 | 0.0 | 2.0 | 0.00 | 0.00 | 0.00 | 92 | 1017.3 |
| 20260901040525 | 58 | 159 | 0.0 | 0.0 | 0.00 | 0.00 | 0.00 | 92 | 1017.3 |
| 20260901040025 | 58 | 159 | 0.0 | 0.0 | 0.00 | 0.00 | 0.00 | 92 | 1017.4 |
| 20260901035526 | 58 | 159 | 0.0 | 1.0 | 0.00 | 0.00 | 0.00 | 92 | 1017.4 |
| 20260901035024 | 58 | 159 | 0.0 | 2.0 | 0.00 | 0.00 | 0.00 | 92 | 1017.4 |
| 20260901034525 | 58 | 159 | 1.0 | 2.0 | 0.00 | 0.00 | 0.00 | 92 | 1017.4 |
| 20260901034025 | 58 | 159 | 1.0 | 2.0 | 0.00 | 0.00 | 0.00 | 92 | 1017.4 |
| 20260901033524 | 58 | 159 | 1.0 | 2.0 | 0.00 | 0.00 | 0.00 | 92 | 1017.5 |
| 20260901033034 | 58 | 159 | 0.0 | 2.0 | 0.00 | 0.00 | 0.00 | 91 | 1017.5 |
| 20260901032523 | 58 | 159 | 0.0 | 2.0 | 0.00 | 0.00 | 0.00 | 91 | 1017.5 |
| 20260901032023 | 58 | 159 | 1.0 | 2.0 | 0.00 | 0.00 | 0.00 | 91 | 1017.5 |
| 20260901031532 | 58 | 159 | 0.0 | 2.0 | 0.00 | 0.00 | 0.00 | 91 | 1017.6 |
| 20260901031022 | 58 | 159 | 1.0 | 2.0 | 0.00 | 0.00 | 0.00 | 91 | 1017.5 |
| 20260901030522 | 58 | 159 | 1.0 | 2.0 | 0.00 | 0.00 | 0.00 | 91 | 1017.6 |
| 20260901030022 | 58 | 159 | 1.0 | 2.0 | 0.00 | 0.00 | 0.00 | 91 | 1017.5 |
| 20260901025522 | 58 | 159 | 1.0 | 2.0 | 0.00 | 0.00 | 0.00 | 91 | 1017.6 |
| 20260901025024 | 58 | 159 | 1.0 | 2.0 | 0.00 | 0.00 | 0.00 | 91 | 1017.7 |
| 20260901024522 | 58 | 159 | 1.0 | 2.0 | 0.00 | 0.00 | 0.00 | 90 | 1017.7 |
| 20260901024022 | 58 | 159 | 1.0 | 2.0 | 0.00 | 0.00 | 0.00 | 90 | 1017.7 |
| 20260901023521 | 58 | 159 | 1.0 | 2.0 | 0.00 | 0.00 | 0.00 | 90 | 1017.7 |
| 20260901023022 | 58 | 159 | 1.0 | 2.0 | 0.00 | 0.00 | 0.00 | 89 | 1017.7 |
| 20260901022520 | 58 | 159 | 1.0 | 2.0 | 0.00 | 0.00 | 0.00 | 89 | 1017.5 |
| 20260901022020 | 58 | 159 | 1.0 | 2.0 | 0.00 | 0.00 | 0.00 | 88 | 1017.7 |
| 20260901021541 | 58 | 159 | 1.0 | 2.0 | 0.00 | 0.00 | 0.00 | 89 | 1017.7 |
| 20260901021020 | 58 | 159 | 0.0 | 0.0 | 0.00 | 0.00 | 0.00 | 88 | 1017.6 |
| 20260901020523 | 59 | 159 | 0.0 | 0.0 | 0.00 | 0.00 | 0.00 | 88 | 1017.7 |
| 20260901020019 | 59 | 159 | 0.0 | 0.0 | 0.00 | 0.00 | 0.00 | 88 | 1017.6 |
| 20260901015519 | 59 | 159 | 0.0 | 0.0 | 0.00 | 0.00 | 0.00 | 88 | 1017.6 |
| 20260901015119 | 59 | 159 | 0.0 | 0.0 | 0.00 | 0.00 | 0.00 | 88 | 1017.7 |
| 20260901014520 | 59 | 159 | 0.0 | 0.0 | 0.00 | 0.00 | 0.00 | 88 | 1017.5 |
| 20260901014019 | 59 | 159 | 0.0 | 0.0 | 0.00 | 0.00 | 0.00 | 87 | 1017.6 |
| 20260901013518 | 59 | 159 | 0.0 | 0.0 | 0.00 | 0.00 | 0.00 | 87 | 1017.5 |
| 20260901013027 | 59 | 159 | 0.0 | 1.0 | 0.00 | 0.00 | 0.00 | 86 | 1017.5 |
| 20260901012517 | 60 | 159 | 0.0 | 2.0 | 0.00 | 0.00 | 0.00 | 86 | 1017.4 |
| 20260901012019 | 60 | 159 | 0.0 | 2.0 | 0.00 | 0.00 | 0.00 | 86 | 1017.4 |
| 20260901011520 | 60 | 159 | 0.0 | 2.0 | 0.00 | 0.00 | 0.00 | 86 | 1017.5 |
| 20260901011117 | 60 | 159 | 0.0 | 2.0 | 0.00 | 0.00 | 0.00 | 85 | 1017.5 |
| 20260901010516 | 60 | 159 | 1.0 | 2.0 | 0.00 | 0.00 | 0.00 | 85 | 1017.5 |
| 20260901010037 | 61 | 159 | 0.0 | 2.0 | 0.00 | 0.00 | 0.00 | 85 | 1017.6 |
| 20260901005517 | 61 | 159 | 0.0 | 2.0 | 0.00 | 0.00 | 0.00 | 84 | 1017.5 |
| 20260901005015 | 61 | 159 | 1.0 | 2.0 | 0.00 | 0.00 | 0.00 | 84 | 1017.5 |
| 20260901004517 | 61 | 159 | 1.0 | 2.0 | 0.00 | 0.00 | 0.00 | 83 | 1017.4 |
| 20260901004015 | 61 | 159 | 0.0 | 2.0 | 0.00 | 0.00 | 0.00 | 83 | 1017.5 |
| 20260901003515 | 61 | 159 | 0.0 | 3.0 | 0.00 | 0.00 | 0.00 | 83 | 1017.5 |
| 20260901003021 | 61 | 159 | 0.0 | 3.0 | 0.00 | 0.00 | 0.00 | 83 | 1017.4 |
| 20260901002515 | 61 | 158 | 0.0 | 4.0 | 0.00 | 0.00 | 0.00 | 82 | 1017.4 |
| 20260901002015 | 61 | 153 | 1.0 | 4.0 | 0.00 | 0.00 | 0.00 | 82 | 1017.3 |
| 20260901001516 | 61 | 234 | 1.0 | 4.0 | 0.00 | 0.00 | 0.00 | 80 | 1017.3 |
| 20260901001014 | 62 | 292 | 1.0 | 6.0 | 0.00 | 0.00 | 0.00 | 79 | 1017.3 |
| 20260901000514 | 62 | 197 | 1.0 | 6.0 | 0.00 | 0.00 | 0.00 | 79 | 1017.3 |
| 20260901000014 | 62 | 218 | 1.0 | 3.0 | 0.00 | 0.00 | 0.00 | 78 | 1017.2 |
| 20260831235518 | 62 | 223 | 0.0 | 6.0 | 0.00 | 0.00 | 0.00 | 77 | 1017.2 |
| 20260831235017 | 62 | 277 | 0.0 | 6.0 | 0.00 | 0.00 | 0.00 | 76 | 1017.2 |
| 20260831234516 | 62 | 215 | 1.0 | 4.0 | 0.00 | 0.00 | 0.00 | 76 | 1017.2 |
| 20260831234014 | 63 | 211 | 0.0 | 3.0 | 0.00 | 0.00 | 0.00 | 75 | 1017.2 |
| 20260831233513 | 63 | 208 | 1.0 | 3.0 | 0.00 | 0.00 | 0.00 | 74 | 1017.3 |
| 20260831233013 | 63 | 229 | 0.0 | 3.0 | 0.00 | 0.00 | 0.00 | 74 | 1017.4 |
| 20260831232518 | 63 | 260 | 0.0 | 4.0 | 0.00 | 0.00 | 0.00 | 74 | 1017.4 |
| 20260831232015 | 63 | 261 | 1.0 | 4.0 | 0.00 | 0.00 | 0.00 | 74 | 1017.4 |
| 20260831231513 | 63 | 200 | 0.0 | 4.0 | 0.00 | 0.00 | 0.00 | 73 | 1017.4 |
| 20260831231013 | 63 | 188 | 1.0 | 7.0 | 0.00 | 0.00 | 0.00 | 73 | 1017.3 |
| 20260831230513 | 64 | 176 | 2.0 | 7.0 | 0.00 | 0.00 | 0.00 | 73 | 1017.3 |
| 20260831230013 | 64 | 190 | 1.0 | 6.0 | 0.00 | 0.00 | 0.00 | 72 | 1017.3 |
| 20260831225512 | 64 | 209 | 1.0 | 9.0 | 0.00 | 0.00 | 0.00 | 72 | 1017.2 |
| 20260831225012 | 64 | 198 | 2.0 | 9.0 | 0.00 | 0.00 | 0.00 | 72 | 1017.2 |
| 20260831224512 | 64 | 190 | 1.0 | 8.0 | 0.00 | 0.00 | 0.00 | 71 | 1017.2 |
| 20260831224012 | 64 | 79 | 3.0 | 7.0 | 0.00 | 0.00 | 0.00 | 71 | 1017.3 |
| 20260831223511 | 64 | 258 | 2.0 | 7.0 | 0.00 | 0.00 | 0.00 | 71 | 1017.2 |
| 20260831223017 | 64 | 192 | 2.0 | 7.0 | 0.00 | 0.00 | 0.00 | 71 | 1017.3 |
| 20260831222512 | 65 | 148 | 2.0 | 8.0 | 0.00 | 0.00 | 0.00 | 71 | 1017.4 |
| 20260831222011 | 65 | 210 | 3.0 | 9.0 | 0.00 | 0.00 | 0.00 | 71 | 1017.4 |
| 20260831221514 | 65 | 207 | 3.0 | 9.0 | 0.00 | 0.00 | 0.00 | 71 | 1017.4 |
| 20260831221011 | 65 | 175 | 3.0 | 9.0 | 0.00 | 0.00 | 0.00 | 70 | 1017.2 |
| 20260831220510 | 65 | 202 | 4.0 | 10.0 | 0.00 | 0.00 | 0.00 | 70 | 1017.3 |
| 20260831220010 | 65 | 216 | 3.0 | 12.0 | 0.00 | 0.00 | 0.00 | 69 | 1017.4 |
| 20260831215514 | 65 | 180 | 3.0 | 12.0 | 0.00 | 0.00 | 0.00 | 69 | 1017.4 |
| 20260831215016 | 66 | 206 | 5.0 | 10.0 | 0.00 | 0.00 | 0.00 | 69 | 1017.4 |
| 20260831214511 | 66 | 205 | 4.0 | 12.0 | 0.00 | 0.00 | 0.00 | 68 | 1017.3 |
| 20260831214010 | 66 | 250 | 4.0 | 12.0 | 0.00 | 0.00 | 0.00 | 67 | 1017.4 |
| 20260831213509 | 66 | 235 | 3.0 | 9.0 | 0.00 | 0.00 | 0.00 | 64 | 1017.3 |
| 20260831213009 | 66 | 193 | 4.0 | 11.0 | 0.00 | 0.00 | 0.00 | 61 | 1017.5 |
| 20260831212509 | 66 | 182 | 4.0 | 10.0 | 0.00 | 0.00 | 0.00 | 60 | 1017.4 |
| 20260831212009 | 66 | 216 | 3.0 | 10.0 | 0.00 | 0.00 | 0.00 | 58 | 1017.5 |
| 20260831211510 | 66 | 149 | 3.0 | 10.0 | 0.00 | 0.00 | 0.00 | 57 | 1017.5 |
| 20260831211010 | 67 | 222 | 4.0 | 9.0 | 0.00 | 0.00 | 0.00 | 58 | 1017.5 |
| 20260831210508 | 66 | 188 | 4.0 | 9.0 | 0.00 | 0.00 | 0.00 | 56 | 1017.6 |
| 20260831210013 | 66 | 183 | 3.0 | 9.0 | 0.00 | 0.00 | 0.00 | 54 | 1017.6 |
| 20260831205609 | 66 | 228 | 3.0 | 13.0 | 0.00 | 0.00 | 0.00 | 57 | 1017.5 |
| 20260831205008 | 67 | 207 | 5.0 | 13.0 | 0.00 | 0.00 | 0.00 | 58 | 1017.5 |
| 20260831204509 | 67 | 169 | 4.0 | 12.0 | 0.00 | 0.00 | 0.00 | 62 | 1017.7 |
| 20260831204008 | 67 | 169 | 4.0 | 11.0 | 0.00 | 0.00 | 0.00 | 63 | 1017.6 |
| 20260831203506 | 67 | 154 | 5.0 | 14.0 | 0.00 | 0.00 | 0.00 | 61 | 1017.6 |
| 20260831203010 | 67 | 210 | 5.0 | 14.0 | 0.00 | 0.00 | 0.00 | 62 | 1017.6 |
| 20260831202506 | 68 | 235 | 6.0 | 13.0 | 0.00 | 0.00 | 0.00 | 60 | 1017.6 |
| 20260831202006 | 68 | 142 | 4.0 | 12.0 | 0.00 | 0.00 | 0.00 | 61 | 1017.6 |
| 20260831201507 | 68 | 180 | 4.0 | 11.0 | 0.00 | 0.00 | 0.00 | 59 | 1017.7 |
| 20260831201106 | 68 | 217 | 5.0 | 11.0 | 0.00 | 0.00 | 0.00 | 58 | 1017.7 |
| 20260831200505 | 68 | 200 | 5.0 | 11.0 | 0.00 | 0.00 | 0.00 | 55 | 1017.6 |
| 20260831200014 | 68 | 188 | 3.0 | 11.0 | 0.00 | 0.00 | 0.00 | 55 | 1017.7 |
| 20260831195505 | 69 | 205 | 3.0 | 12.0 | 0.00 | 0.00 | 0.00 | 56 | 1017.6 |
| 20260831195004 | 69 | 132 | 3.0 | 12.0 | 0.00 | 0.00 | 0.00 | 55 | 1017.6 |
| 20260831194506 | 69 | 163 | 2.0 | 9.0 | 0.00 | 0.00 | 0.00 | 57 | 1017.8 |
| 20260831194005 | 69 | 157 | 3.0 | 14.0 | 0.00 | 0.00 | 0.00 | 56 | 1017.9 |
| 20260831193504 | 69 | 151 | 3.0 | 14.0 | 0.00 | 0.00 | 0.00 | 57 | 1017.8 |
| 20260831193009 | 70 | 184 | 4.0 | 12.0 | 0.00 | 0.00 | 0.00 | 55 | 1017.9 |
| 20260831192503 | 70 | 185 | 4.0 | 10.0 | 0.00 | 0.00 | 0.00 | 53 | 1017.8 |
| 20260831192003 | 70 | 267 | 2.0 | 13.0 | 0.00 | 0.00 | 0.00 | 54 | 1018.0 |
| 20260831191503 | 70 | 260 | 4.0 | 13.0 | 0.00 | 0.00 | 0.00 | 52 | 1017.9 |
| 20260831191003 | 70 | 177 | 4.0 | 10.0 | 0.00 | 0.00 | 0.00 | 50 | 1017.8 |
| 20260831190504 | 70 | 243 | 4.0 | 11.0 | 0.00 | 0.00 | 0.00 | 50 | 1017.7 |
| 20260831190003 | 70 | 165 | 5.0 | 11.0 | 0.00 | 0.00 | 0.00 | 48 | 1017.9 |
| 20260831185503 | 70 | 171 | 5.0 | 11.0 | 0.00 | 0.00 | 0.00 | 48 | 1018.0 |
| 20260831185003 | 71 | 249 | 5.0 | 11.0 | 0.00 | 0.00 | 0.00 | 47 | 1018.0 |
| 20260831184503 | 71 | 207 | 5.0 | 11.0 | 0.00 | 0.00 | 0.00 | 47 | 1018.0 |
| 20260831184003 | 72 | 234 | 4.0 | 11.0 | 0.00 | 0.00 | 0.00 | 49 | 1018.1 |
| 20260831183502 | 73 | 162 | 5.0 | 11.0 | 0.00 | 0.00 | 0.00 | 48 | 1018.1 |
| 20260831183002 | 73 | 142 | 3.0 | 11.0 | 0.00 | 0.00 | 0.00 | 49 | 1018.2 |
| 20260831182502 | 74 | 123 | 1.0 | 7.0 | 0.00 | 0.00 | 0.00 | 49 | 1018.2 |
| 20260831182002 | 74 | 34 | 3.0 | 8.0 | 0.00 | 0.00 | 0.00 | 47 | 1018.3 |
| 20260831181502 | 74 | 181 | 3.0 | 8.0 | 0.00 | 0.00 | 0.00 | 46 | 1018.2 |
| 20260831181001 | 75 | 142 | 4.0 | 9.0 | 0.00 | 0.00 | 0.00 | 46 | 1018.2 |
| 20260831180501 | 75 | 54 | 3.0 | 9.0 | 0.00 | 0.00 | 0.00 | 44 | 1018.2 |
| 20260831180002 | 75 | 188 | 3.0 | 7.0 | 0.00 | 0.00 | 0.00 | 45 | 1018.1 |
| 20260831175501 | 75 | 42 | 1.0 | 5.0 | 0.00 | 0.00 | 0.00 | 44 | 1018.3 |
| 20260831175001 | 76 | 360 | 2.0 | 5.0 | 0.00 | 0.00 | 0.00 | 44 | 1018.4 |
| 20260831174501 | 76 | 140 | 3.0 | 5.0 | 0.00 | 0.00 | 0.00 | 45 | 1018.4 |
| 20260831174102 | 76 | 155 | 1.0 | 6.0 | 0.00 | 0.00 | 0.00 | 44 | 1018.5 |
| 20260831173603 | 76 | 155 | 4.0 | 7.0 | 0.00 | 0.00 | 0.00 | 44 | 1018.5 |
| 20260831173100 | 77 | 140 | 3.0 | 7.0 | 0.00 | 0.00 | 0.00 | 43 | 1018.5 |
| 20260831172559 | 77 | 209 | 4.0 | 8.0 | 0.00 | 0.00 | 0.00 | 42 | 1018.6 |
| 20260831172059 | 77 | 104 | 3.0 | 8.0 | 0.00 | 0.00 | 0.00 | 43 | 1018.5 |
| 20260831171601 | 77 | 98 | 0.0 | 8.0 | 0.00 | 0.00 | 0.00 | 42 | 1018.5 |
| 20260831171059 | 77 | 88 | 2.0 | 8.0 | 0.00 | 0.00 | 0.00 | 42 | 1018.6 |
| 20260831170557 | 77 | 34 | 2.0 | 4.0 | 0.00 | 0.00 | 0.00 | 43 | 1018.7 |
| 20260831170055 | 76 | 31 | 2.0 | 4.0 | 0.00 | 0.00 | 0.00 | 43 | 1018.8 |
| 20260831165554 | 75 | 58 | 1.0 | 4.0 | 0.00 | 0.00 | 0.00 | 42 | 1018.8 |
| 20260831165053 | 75 | 319 | 1.0 | 6.0 | 0.00 | 0.00 | 0.00 | 43 | 1018.8 |
| 20260831164553 | 75 | 30 | 3.0 | 6.0 | 0.00 | 0.00 | 0.00 | 44 | 1018.9 |
| 20260831164053 | 75 | 355 | 2.0 | 6.0 | 0.00 | 0.00 | 0.00 | 43 | 1019.0 |
| 20260831163551 | 74 | 38 | 2.0 | 6.0 | 0.00 | 0.00 | 0.00 | 48 | 1019.1 |
| 20260831163050 | 74 | 30 | 3.0 | 6.0 | 0.00 | 0.00 | 0.00 | 44 | 1019.0 |
| 20260831162550 | 74 | 5 | 3.0 | 5.0 | 0.00 | 0.00 | 0.00 | 45 | 1019.1 |
| 20260831162050 | 73 | 49 | 3.0 | 6.0 | 0.00 | 0.00 | 0.00 | 46 | 1019.1 |
| 20260831161550 | 72 | 32 | 2.0 | 6.0 | 0.00 | 0.00 | 0.00 | 49 | 1019.1 |